• In Netherlands
  • List of Countries
  • For 7 days
  • Water Temperature
  • Satellite Maps
  • Weather Map
  • Weather Widgets
  • user-avatar
    Login

    Hourly Weather Sevan

    Today, 17 January, Wednesday

    Time Temperature Precipitation Wind Pressure Humidity
    00:00 -7°C° 0 mm 1 mps 639 mmHg 76%
    01:00 -7°C° 0 mm 1 mps 639 mmHg 76%
    02:00 -7°C° 0 mm 1 mps 639 mmHg 77%
    03:00 -8°C° 0 mm 2 mps 638 mmHg 81%
    04:00 -8°C° 0 mm 2 mps 638 mmHg 81%
    05:00 -8°C° 0 mm 2 mps 638 mmHg 81%
    06:00 -8°C° 0 mm 2 mps 638 mmHg 81%
    07:00 -7°C° 0.1 mm 2 mps 638 mmHg 79%
    08:00 -6°C° 0.1 mm 2 mps 638 mmHg 78%
    09:00 -5°C° 0 mm 2 mps 638 mmHg 76%
    10:00 -5°C° 0.1 mm 2 mps 638 mmHg 75%
    11:00 -5°C° 0.1 mm 3 mps 638 mmHg 74%
    12:00 -4°C° 0.1 mm 3 mps 638 mmHg 72%
    13:00 -4°C° 0.1 mm 3 mps 637 mmHg 72%
    14:00 -4°C° 0.1 mm 3 mps 637 mmHg 72%
    15:00 -4°C° 0.1 mm 3 mps 637 mmHg 72%
    16:00 -4°C° 0 mm 2 mps 637 mmHg 74%
    17:00 -4°C° 0 mm 2 mps 636 mmHg 76%
    18:00 -5°C° 0 mm 2 mps 636 mmHg 79%
    19:00 -6°C° 0 mm 2 mps 636 mmHg 78%
    20:00 -6°C° 0 mm 2 mps 636 mmHg 78%
    21:00 -6°C° 0 mm 2 mps 636 mmHg 78%
    22:00 -5°C° 0.2 mm 2 mps 636 mmHg 79%
    23:00 -5°C° 0.2 mm 2 mps 636 mmHg 79%

    Tomorrow, 18 January, Thursday

    Time Temperature Precipitation Wind Pressure Humidity
    00:00 -5°C° 0.2 mm 2 mps 636 mmHg 80%
    01:00 -5°C° 0.4 mm 2 mps 635 mmHg 82%
    02:00 -6°C° 0.4 mm 3 mps 635 mmHg 83%
    03:00 -6°C° 0.4 mm 3 mps 635 mmHg 85%
    04:00 -5°C° 0.4 mm 3 mps 635 mmHg 85%
    05:00 -5°C° 0.4 mm 3 mps 634 mmHg 86%
    06:00 -5°C° 0.4 mm 3 mps 634 mmHg 87%
    07:00 -5°C° 0.2 mm 3 mps 634 mmHg 85%
    08:00 -5°C° 0.2 mm 3 mps 634 mmHg 84%
    09:00 -4°C° 0.2 mm 4 mps 634 mmHg 82%
    10:00 -3°C° 0.3 mm 4 mps 634 mmHg 80%
    11:00 -2°C° 0.3 mm 4 mps 634 mmHg 78%
    12:00 -2°C° 0.3 mm 5 mps 633 mmHg 77%
    13:00 -1°C° 0.2 mm 5 mps 633 mmHg 76%
    14:00 -1°C° 0.2 mm 5 mps 632 mmHg 75%
    15:00 -1°C° 0.2 mm 5 mps 632 mmHg 75%
    16:00 -2°C° 0.1 mm 4 mps 632 mmHg 76%
    17:00 -2°C° 0.1 mm 4 mps 632 mmHg 77%
    18:00 -3°C° 0.1 mm 4 mps 632 mmHg 79%
    19:00 -3°C° 0.1 mm 4 mps 632 mmHg 79%
    20:00 -2°C° 0.1 mm 3 mps 632 mmHg 79%
    21:00 -2°C° 0.1 mm 3 mps 632 mmHg 79%
    22:00 -2°C° 0 mm 3 mps 632 mmHg 79%
    23:00 -2°C° 0 mm 3 mps 632 mmHg 80%

    Day after tomorrow, 19 January, Friday

    Time Temperature Precipitation Wind Pressure Humidity
    00:00 -2°C° 0 mm 3 mps 631 mmHg 80%
    01:00 -2°C° 0 mm 3 mps 631 mmHg 81%
    02:00 -4°C° 0 mm 3 mps 631 mmHg 82%
    03:00 -4°C° 0 mm 3 mps 631 mmHg 83%
    04:00 -4°C° 0 mm 3 mps 631 mmHg 83%
    05:00 -4°C° 0 mm 3 mps 631 mmHg 83%
    06:00 -4°C° 0 mm 3 mps 631 mmHg 83%
    07:00 -2°C° 0.1 mm 3 mps 631 mmHg 81%
    08:00 -1°C° 0.1 mm 2 mps 632 mmHg 80%
    09:00 -1°C° 0.1 mm 2 mps 632 mmHg 79%
    10:00 0°C° 0 mm 3 mps 632 mmHg 76%
    11:00 +2°C° 0 mm 3 mps 632 mmHg 73%
    12:00 +3°C° 0 mm 3 mps 632 mmHg 70%
    13:00 +3°C° 0 mm 3 mps 632 mmHg 70%
    14:00 +3°C° 0 mm 3 mps 632 mmHg 70%
    15:00 +3°C° 0 mm 3 mps 631 mmHg 70%
    16:00 +2°C° 0 mm 3 mps 632 mmHg 72%
    17:00 +2°C° 0 mm 2 mps 632 mmHg 73%
    18:00 +1°C° 0 mm 2 mps 632 mmHg 74%
    19:00 +1°C° 0 mm 2 mps 632 mmHg 74%
    20:00 -1°C° 0 mm 2 mps 633 mmHg 74%
    21:00 -1°C° 0 mm 2 mps 633 mmHg 74%
    22:00 -1°C° 0.1 mm 2 mps 633 mmHg 76%
    23:00 -1°C° 0.1 mm 2 mps 633 mmHg 78%

    20 January, Saturday

    Time Temperature Precipitation Wind Pressure Humidity
    00:00 -1°C° 0.1 mm 2 mps 634 mmHg 80%
    01:00 -1°C° 0.1 mm 2 mps 634 mmHg 82%
    02:00 -1°C° 0.1 mm 3 mps 635 mmHg 83%
    03:00 -2°C° 0.1 mm 3 mps 635 mmHg 84%
    04:00 -2°C° 0.3 mm 3 mps 636 mmHg 84%
    05:00 -2°C° 0.3 mm 3 mps 636 mmHg 84%
    06:00 -2°C° 0.3 mm 3 mps 637 mmHg 84%
    07:00 -2°C° 0.1 mm 2 mps 637 mmHg 82%
    08:00 -2°C° 0.1 mm 2 mps 638 mmHg 80%
    09:00 -2°C° 0.1 mm 2 mps 639 mmHg 79%
    10:00 -1°C° 0 mm 2 mps 639 mmHg 75%
    11:00 +1°C° 0 mm 2 mps 639 mmHg 72%
    12:00 +2°C° 0 mm 2 mps 639 mmHg 68%
    13:00 +2°C° 0 mm 2 mps 639 mmHg 67%
    14:00 +2°C° 0 mm 2 mps 639 mmHg 66%
    15:00 +3°C° 0 mm 1 mps 639 mmHg 65%
    16:00 +1°C° 0 mm 1 mps 640 mmHg 67%
    17:00 0°C° 0 mm 1 mps 640 mmHg 68%
    18:00 -2°C° 0 mm 1 mps 640 mmHg 69%
    19:00 -2°C° 0 mm 1 mps 640 mmHg 67%
    20:00 -3°C° 0 mm 1 mps 641 mmHg 65%
    21:00 -5°C° 0 mm 2 mps 641 mmHg 63%
    22:00 -5°C° 0 mm 2 mps 641 mmHg 62%
    23:00 -5°C° 0 mm 2 mps 641 mmHg 61%

    21 January, Sunday

    Time Temperature Precipitation Wind Pressure Humidity
    00:00 -4°C° 0 mm 1 mps 641 mmHg 59%
    01:00 -6°C° 0 mm 2 mps 641 mmHg 59%
    02:00 -6°C° 0 mm 2 mps 641 mmHg 58%
    03:00 -6°C° 0 mm 2 mps 641 mmHg 58%
    04:00 -6°C° 0 mm 2 mps 641 mmHg 58%
    05:00 -6°C° 0 mm 2 mps 641 mmHg 59%
    06:00 -6°C° 0 mm 2 mps 641 mmHg 59%
    07:00 -5°C° 0 mm 2 mps 641 mmHg 58%
    08:00 -4°C° 0 mm 2 mps 642 mmHg 57%
    09:00 -3°C° 0 mm 2 mps 642 mmHg 57%
    10:00 -2°C° 0 mm 2 mps 642 mmHg 55%
    11:00 +1°C° 0 mm 2 mps 642 mmHg 54%
    12:00 +2°C° 0 mm 2 mps 642 mmHg 52%
    13:00 +2°C° 0 mm 2 mps 641 mmHg 53%
    14:00 +2°C° 0 mm 2 mps 641 mmHg 53%
    15:00 +3°C° 0 mm 2 mps 641 mmHg 54%
    16:00 +1°C° 0 mm 2 mps 641 mmHg 53%
    17:00 -1°C° 0 mm 2 mps 641 mmHg 52%
    18:00 -3°C° 0 mm 2 mps 640 mmHg 51%
    19:00 -3°C° 0 mm 2 mps 640 mmHg 51%
    20:00 -3°C° 0 mm 2 mps 640 mmHg 50%
    21:00 -3°C° 0 mm 2 mps 640 mmHg 50%
    22:00 -3°C° 0 mm 2 mps 640 mmHg 50%
    23:00 -3°C° 0 mm 2 mps 640 mmHg 50%

    22 January, Monday

    Time Temperature Precipitation Wind Pressure Humidity
    00:00 -3°C° 0 mm 2 mps 640 mmHg 51%
    01:00 -3°C° 0 mm 2 mps 640 mmHg 51%
    02:00 -3°C° 0 mm 2 mps 639 mmHg 51%
    03:00 -3°C° 0 mm 2 mps 639 mmHg 51%
    04:00 -3°C° 0 mm 2 mps 639 mmHg 51%
    05:00 -3°C° 0 mm 2 mps 639 mmHg 51%
    06:00 -3°C° 0 mm 2 mps 638 mmHg 51%
    07:00 -2°C° 0 mm 2 mps 639 mmHg 51%
    08:00 -1°C° 0 mm 2 mps 639 mmHg 52%
    09:00 -1°C° 0 mm 2 mps 639 mmHg 52%
    10:00 +2°C° 0 mm 2 mps 638 mmHg 51%
    11:00 +3°C° 0 mm 2 mps 638 mmHg 50%
    12:00 +4°C° 0 mm 2 mps 638 mmHg 49%
    13:00 +4°C° 0 mm 2 mps 637 mmHg 50%
    14:00 +4°C° 0 mm 2 mps 637 mmHg 50%
    15:00 +4°C° 0 mm 2 mps 637 mmHg 50%
    16:00 +3°C° 0 mm 2 mps 636 mmHg 48%
    17:00 +1°C° 0 mm 2 mps 636 mmHg 47%
    18:00 -1°C° 0 mm 2 mps 636 mmHg 45%
    19:00 -2°C° 0 mm 2 mps 636 mmHg 45%
    20:00 -2°C° 0 mm 2 mps 636 mmHg 44%
    21:00 -2°C° 0 mm 2 mps 636 mmHg 44%
    22:00 -3°C° 0 mm 2 mps 636 mmHg 45%
    23:00 -3°C° 0 mm 2 mps 636 mmHg 46%
    Show more